Weather reports worldwide

Advertisment
La Gomera/Aeropuerto, Spain (60007): temperature & dewpoint: 09.01.2021 14:00:00 - 15.01.2021 14:00:00 (WET)La Gomera/Aeropuerto, Spain (60007): wind speed: 09.01.2021 14:00:00 - 15.01.2021 14:00:00 (WET)La Gomera/Aeropuerto, Spain (60007): wind direction: 09.01.2021 14:00:00 - 15.01.2021 14:00:00 (WET)La Gomera/Aeropuerto, Spain (60007): reduced air pressure: 09.01.2021 14:00:00 - 15.01.2021 14:00:00 (WET)La Gomera/Aeropuerto, Spain (60007): visibility: 09.01.2021 14:00:00 - 15.01.2021 14:00:00 (WET)
Date & Time tt [°C] td [°C] ff [km/h] ff [kn] dd ppp [hPa] vv [km]
15.01.2021 14:00:00 - - - - - - -
15.01.2021 13:00:00 18,0 8,0 11 6 - - 10
15.01.2021 12:00:00 18,4 7,5 13 7 - 1028,1 10
15.01.2021 11:00:00 17,0 7,0 13 7 - - 10
15.01.2021 10:00:00 17,0 7,0 13 7 - - 10
15.01.2021 09:00:00 16,0 7,7 11 6 - 1027,3 10
15.01.2021 08:00:00 15,0 7,0 15 8 - - 10
15.01.2021 07:00:00 15,0 6,0 16 9 - - 10
15.01.2021 06:00:00 14,9 6,2 16 9 N 1027,0 10
15.01.2021 05:00:00 16,0 7,0 9 5 - - 10
15.01.2021 04:00:00 15,0 7,0 9 5 WNW - 10
15.01.2021 03:00:00 15,0 7,0 8 4 NW - 10
15.01.2021 02:00:00 15,0 7,0 13 7 NE - 10
15.01.2021 01:00:00 15,0 6,0 15 8 ENE - 10
15.01.2021 00:00:00 16,0 8,0 15 8 NE - 10
14.01.2021 23:00:00 16,0 8,0 11 6 - - 10
14.01.2021 22:00:00 17,0 9,0 15 8 NE - 10
14.01.2021 21:00:00 16,0 8,0 9 5 - - 10
14.01.2021 20:00:00 16,0 8,0 11 6 NE - 10
14.01.2021 19:00:00 17,0 6,0 15 8 - - 10
14.01.2021 18:00:00 17,6 5,9 13 7 N 1027,1 60
14.01.2021 17:00:00 18,0 7,0 15 8 N - 10
14.01.2021 16:00:00 17,0 10,0 4 2 - - 10
14.01.2021 15:00:00 17,7 10,6 8 4 N 1027,1 50
14.01.2021 14:00:00 18,0 10,0 15 8 SW - 10
14.01.2021 13:00:00 20,0 10,0 13 7 SW - 10
14.01.2021 12:00:00 19,6 9,2 11 6 - 1029,2 10
14.01.2021 11:00:00 19,0 8,0 9 5 N - 10
14.01.2021 10:00:00 18,0 7,0 8 4 - - 10
14.01.2021 09:00:00 16,2 7,2 15 8 - 1028,4 10
14.01.2021 08:00:00 15,0 7,0 15 8 NNW - 10
14.01.2021 07:00:00 16,0 4,0 11 6 - - 10
14.01.2021 06:00:00 15,7 5,0 15 8 NNW 1027,6 10
14.01.2021 05:00:00 16,0 5,0 11 6 - - 10
14.01.2021 04:00:00 15,0 7,0 15 8 - - 10
14.01.2021 03:00:00 15,0 7,0 11 6 - - 10
14.01.2021 02:00:00 15,0 7,0 11 6 N - 10
14.01.2021 01:00:00 15,0 6,0 9 5 - - 10
14.01.2021 00:00:00 16,0 7,0 16 9 - - 10
13.01.2021 23:00:00 16,0 7,0 11 6 NNE - 10
13.01.2021 22:00:00 16,0 7,0 8 4 - - 10
13.01.2021 21:00:00 16,0 7,0 9 5 - - 10
13.01.2021 20:00:00 16,0 8,0 5 3 - - 10
13.01.2021 19:00:00 16,0 8,0 15 8 NNE - 10
13.01.2021 18:00:00 17,2 7,8 8 4 - 1027,0 10
13.01.2021 17:00:00 18,0 9,0 18 10 ENE - 10
13.01.2021 16:00:00 18,0 9,0 16 9 - - 10
13.01.2021 15:00:00 18,6 8,8 13 7 N 1026,1 50
13.01.2021 14:00:00 19,0 8,0 16 9 NE - 10
13.01.2021 13:00:00 18,0 10,0 13 7 - - 10
13.01.2021 12:00:00 18,1 9,7 5 3 N 1027,8 55
13.01.2021 11:00:00 19,0 9,0 11 6 WNW - 10
13.01.2021 10:00:00 17,0 8,0 4 2 - - 10
13.01.2021 09:00:00 16,1 9,1 15 8 - 1027,2 10
13.01.2021 08:00:00 15,0 8,0 13 7 - - 10
13.01.2021 07:00:00 15,0 8,0 15 8 - - 10
13.01.2021 06:00:00 - - - - - - -
13.01.2021 05:00:00 - - - - - - -
13.01.2021 04:00:00 - - - - - - -
13.01.2021 03:00:00 - - - - - - -
13.01.2021 02:00:00 16,0 9,0 8 4 - - 10
13.01.2021 01:00:00 15,0 9,0 5 3 E - 10
13.01.2021 00:00:00 16,0 8,0 15 8 NE - 10
12.01.2021 23:00:00 16,0 8,0 11 6 - - 10
12.01.2021 22:00:00 16,0 8,0 13 7 - - 10
12.01.2021 21:00:00 16,0 8,0 15 8 NNW - 10
12.01.2021 20:00:00 16,0 8,0 8 4 - - 10
12.01.2021 19:00:00 17,0 9,0 9 5 - - 10
12.01.2021 18:00:00 17,6 7,4 8 4 N 1024,4 55
12.01.2021 17:00:00 17,0 7,0 11 6 - - 10
12.01.2021 16:00:00 18,0 8,0 13 7 - - 10
12.01.2021 15:00:00 19,0 9,5 22 12 E 1023,6 10
12.01.2021 14:00:00 19,0 7,0 11 6 - - 10
12.01.2021 13:00:00 18,0 8,0 16 9 - - 10
12.01.2021 12:00:00 18,3 8,0 21 11 N 1025,7 50
12.01.2021 11:00:00 18,0 7,0 15 8 - - 10
12.01.2021 10:00:00 16,0 7,0 9 5 - - 10
12.01.2021 09:00:00 15,5 6,8 15 8 - 1025,5 10
12.01.2021 08:00:00 15,0 7,0 11 6 - - 10
12.01.2021 07:00:00 15,0 6,0 13 7 NW - 10
12.01.2021 06:00:00 15,0 7,0 13 7 - - 10
12.01.2021 05:00:00 15,0 5,0 16 9 - - 10
12.01.2021 04:00:00 15,0 5,0 15 8 NNW - 10
12.01.2021 03:00:00 15,0 7,0 15 8 - - 10
12.01.2021 02:00:00 15,0 6,0 13 7 NNW - 10
12.01.2021 01:00:00 15,0 6,0 18 10 - - 10
12.01.2021 00:00:00 15,0 8,0 21 11 NNW - 10
11.01.2021 23:00:00 15,0 6,0 22 12 - - 10
11.01.2021 22:00:00 15,0 6,0 21 11 NNW - 10
11.01.2021 21:00:00 16,0 6,0 15 8 - - 10
11.01.2021 20:00:00 15,0 6,0 15 8 - - 10
11.01.2021 19:00:00 16,0 6,0 18 10 - - 10
11.01.2021 18:00:00 17,2 7,0 15 8 N 1022,9 50
11.01.2021 17:00:00 18,0 5,0 16 9 - - 10
11.01.2021 16:00:00 18,0 6,0 16 9 - - 10
11.01.2021 15:00:00 18,2 4,7 15 8 - 1022,5 10
11.01.2021 14:00:00 18,0 7,0 18 10 ENE - 10
11.01.2021 13:00:00 17,0 6,0 15 8 - - 10
11.01.2021 12:00:00 17,5 7,3 18 10 N 1025,1 10
11.01.2021 11:00:00 17,0 7,0 11 6 NE - 10
11.01.2021 10:00:00 16,0 8,0 8 4 - - 10
11.01.2021 09:00:00 15,0 8,9 2 1 N 1024,9 20
11.01.2021 08:00:00 14,0 9,0 5 3 NW - 10
11.01.2021 07:00:00 15,0 7,0 5 3 N - 10
11.01.2021 06:00:00 14,6 7,6 2 1 - 1023,4 10
11.01.2021 05:00:00 15,0 7,0 4 2 - - 10
11.01.2021 04:00:00 15,0 8,0 9 5 - - 10
11.01.2021 03:00:00 14,0 9,0 13 7 - - 10
11.01.2021 02:00:00 15,0 8,0 8 4 - - 10
11.01.2021 01:00:00 15,0 10,0 8 4 - - 9
11.01.2021 00:00:00 15,0 8,0 8 4 - - 10
10.01.2021 23:00:00 15,0 7,0 16 9 - - 10
10.01.2021 22:00:00 15,0 8,0 13 7 - - 10
10.01.2021 21:00:00 16,0 7,0 21 11 - - 10
10.01.2021 20:00:00 16,0 9,0 11 6 - - 10
10.01.2021 19:00:00 15,0 10,0 11 6 N - 10
10.01.2021 18:00:00 16,4 8,9 13 7 - 1022,6 10
10.01.2021 17:00:00 18,0 8,0 9 5 - - 10
10.01.2021 16:00:00 17,0 9,0 9 5 - - 10
10.01.2021 15:00:00 18,3 9,6 8 4 - 1022,5 10
10.01.2021 14:00:00 18,0 9,0 9 5 - - 10
10.01.2021 13:00:00 18,0 9,0 9 5 - - 10
10.01.2021 12:00:00 17,8 9,2 9 5 - 1024,8 10
10.01.2021 11:00:00 17,0 9,0 2 1 - - 10
10.01.2021 10:00:00 17,0 9,0 8 4 - - 10
10.01.2021 09:00:00 15,0 8,0 5 3 NNW 1024,3 10
10.01.2021 08:00:00 14,0 9,0 9 5 - - 10
10.01.2021 07:00:00 14,0 8,0 8 4 - - 10
10.01.2021 06:00:00 13,4 8,7 8 4 NW 1022,9 10
10.01.2021 05:00:00 14,0 8,0 8 4 NW - 10
10.01.2021 04:00:00 15,0 7,0 2 1 - - 10
10.01.2021 03:00:00 14,0 7,0 2 1 - - 10
10.01.2021 02:00:00 14,0 8,0 9 5 NNW - 10
10.01.2021 01:00:00 15,0 7,0 8 4 - - 10
10.01.2021 00:00:00 15,0 8,0 4 2 - - 10
09.01.2021 23:00:00 15,0 7,0 4 2 - - 10
09.01.2021 22:00:00 15,0 7,0 8 4 - - 10
09.01.2021 21:00:00 15,0 7,0 8 4 - - 10
09.01.2021 20:00:00 15,0 6,0 11 6 NNE - 10
09.01.2021 19:00:00 15,0 6,0 13 7 - - 10
09.01.2021 18:00:00 16,0 6,7 13 7 N 1020,8 50
09.01.2021 17:00:00 16,0 6,0 13 7 - - 10
09.01.2021 16:00:00 16,0 8,0 9 5 - - 10
09.01.2021 15:00:00 15,3 9,0 16 9 N 1020,5 50
09.01.2021 14:00:00 16,0 7,0 15 8 - - 10

tt = temperature
td = dewpoint
ff = wind speed
dd = wind direction
ppp = reduced air pressure
vv = visibility

Next stations